| time (UTC) | temp F | wind direction | speed knots | gust knots | rain 1hr in | rain 24hr in | rain mn in | humidity % | barometer mb |
| 20260502170504 | 55 | 33 | 0.0 | 0.0 | 0.00 | 0.00 | 0.00 | 59 | 1013.6 |
| 20260502164003 | 55 | 61 | 0.0 | 0.0 | 0.00 | 0.00 | 0.00 | 62 | 1013.8 |
| 20260502163503 | 55 | 61 | 0.0 | 0.0 | 0.00 | 0.00 | 0.00 | 62 | 1013.7 |
| 20260502163013 | 55 | 59 | 0.0 | 0.0 | 0.00 | 0.00 | 0.00 | 62 | 1013.7 |
| 20260502162505 | 55 | 60 | 0.0 | 0.0 | 0.00 | 0.00 | 0.00 | 64 | 1013.6 |
| 20260502162007 | 55 | 49 | 0.0 | 0.0 | 0.00 | 0.00 | 0.00 | 62 | 1013.5 |
| 20260502161511 | 55 | 64 | 0.0 | 0.0 | 0.00 | 0.00 | 0.00 | 65 | 1013.6 |
| 20260502161005 | 55 | 65 | 0.0 | 0.0 | 0.00 | 0.00 | 0.00 | 65 | 1013.8 |
| 20260502160504 | 54 | 65 | 0.0 | 0.0 | 0.00 | 0.00 | 0.00 | 65 | 1013.9 |
| 20260502152004 | 54 | 262 | 0.0 | 0.0 | 0.00 | 0.00 | 0.00 | 65 | 1014.2 |
| 20260502151508 | 54 | 262 | 0.0 | 0.0 | 0.00 | 0.00 | 0.00 | 63 | 1014.4 |
| 20260502151003 | 54 | 259 | 0.0 | 0.0 | 0.00 | 0.00 | 0.00 | 64 | 1014.3 |
| 20260502150503 | 54 | 279 | 0.0 | 0.0 | 0.00 | 0.00 | 0.00 | 65 | 1014.3 |
| 20260502130503 | 52 | 339 | 0.0 | 0.9 | 0.00 | 0.00 | 0.00 | 66 | 1013.6 |
| 20260502123506 | 51 | 298 | 0.0 | 4.3 | 0.00 | 0.00 | 0.00 | 69 | 1013.4 |
| 20260502123025 | 52 | 319 | 0.0 | 0.0 | 0.00 | 0.00 | 0.00 | 69 | 1013.5 |
| 20260502122506 | 52 | 310 | 0.0 | 0.0 | 0.00 | 0.00 | 0.00 | 69 | 1013.4 |
| 20260502122009 | 52 | 13 | 0.0 | 0.0 | 0.00 | 0.00 | 0.00 | 69 | 1013.3 |
| 20260502121522 | 52 | 13 | 0.0 | 0.0 | 0.00 | 0.00 | 0.00 | 70 | 1013.3 |
| 20260502121008 | 52 | 13 | 0.0 | 0.0 | 0.00 | 0.00 | 0.00 | 70 | 1013.2 |
| 20260502120507 | 52 | 29 | 0.0 | 0.0 | 0.00 | 0.00 | 0.00 | 70 | 1013.4 |
| 20260502115504 | 52 | 303 | 0.0 | 0.0 | 0.00 | 0.00 | 0.00 | 71 | 1013.6 |
| 20260502115003 | 52 | 306 | 0.0 | 0.0 | 0.00 | 0.00 | 0.00 | 71 | 1013.5 |
| 20260502114511 | 52 | 313 | 0.0 | 0.0 | 0.00 | 0.00 | 0.00 | 72 | 1013.5 |
| 20260502114003 | 52 | 313 | 0.0 | 0.0 | 0.00 | 0.00 | 0.00 | 72 | 1013.5 |
| 20260502113503 | 52 | 312 | 0.0 | 0.0 | 0.00 | 0.00 | 0.00 | 72 | 1013.5 |
| 20260502113016 | 52 | 312 | 0.0 | 0.0 | 0.00 | 0.00 | 0.00 | 71 | 1013.5 |
| 20260502112506 | 52 | 313 | 0.0 | 0.0 | 0.00 | 0.00 | 0.00 | 71 | 1013.5 |
| 20260502112007 | 52 | 307 | 0.0 | 0.0 | 0.00 | 0.00 | 0.00 | 71 | 1013.4 |
| 20260502111520 | 52 | 295 | 0.0 | 0.0 | 0.00 | 0.00 | 0.00 | 71 | 1013.3 |
| 20260502111006 | 52 | 287 | 0.0 | 0.0 | 0.00 | 0.00 | 0.00 | 71 | 1013.2 |
| 20260502110506 | 52 | 263 | 0.0 | 0.0 | 0.00 | 0.00 | 0.00 | 71 | 1013.1 |
| 20260502110028 | 52 | 263 | 0.0 | 0.0 | 0.00 | 0.00 | 0.00 | 71 | 1013.0 |
| 20260502105504 | 52 | 263 | 0.0 | 0.0 | 0.00 | 0.00 | 0.00 | 71 | 1013.0 |
| 20260502105003 | 52 | 171 | 0.0 | 0.0 | 0.00 | 0.00 | 0.00 | 71 | 1013.0 |
| 20260502104517 | 52 | 49 | 0.0 | 0.0 | 0.00 | 0.00 | 0.00 | 71 | 1013.0 |
| 20260502104003 | 52 | 49 | 0.0 | 0.0 | 0.00 | 0.00 | 0.00 | 71 | 1013.0 |
| 20260502103502 | 52 | 49 | 0.0 | 0.0 | 0.00 | 0.00 | 0.00 | 72 | 1012.9 |
| 20260502103011 | 52 | 49 | 0.0 | 0.0 | 0.00 | 0.00 | 0.00 | 71 | 1012.9 |
| 20260502102507 | 52 | 50 | 0.0 | 0.0 | 0.00 | 0.00 | 0.00 | 72 | 1012.8 |
| 20260502102006 | 52 | 50 | 0.0 | 0.0 | 0.00 | 0.00 | 0.00 | 72 | 1012.8 |
| 20260502101519 | 52 | 50 | 0.0 | 0.0 | 0.00 | 0.00 | 0.00 | 72 | 1012.8 |
| 20260502101012 | 52 | 51 | 0.0 | 0.0 | 0.00 | 0.00 | 0.00 | 72 | 1012.7 |
| 20260502100506 | 52 | 52 | 0.0 | 0.0 | 0.00 | 0.00 | 0.00 | 72 | 1012.7 |
| 20260502091518 | 52 | 264 | 0.0 | 0.0 | 0.00 | 0.00 | 0.00 | 77 | 1012.1 |
| 20260502091005 | 51 | 238 | 0.0 | 0.0 | 0.00 | 0.00 | 0.00 | 78 | 1012.1 |
| 20260502090505 | 51 | 238 | 0.0 | 0.0 | 0.00 | 0.00 | 0.00 | 79 | 1012.1 |
| 20260502071508 | 51 | 235 | 0.0 | 0.0 | 0.00 | 0.00 | 0.00 | 82 | 1011.7 |
| 20260502071007 | 51 | 235 | 0.0 | 0.0 | 0.00 | 0.00 | 0.00 | 81 | 1011.6 |
| 20260502070503 | 51 | 235 | 0.0 | 0.0 | 0.00 | 0.00 | 0.00 | 81 | 1011.6 |
| 20260502070012 | 51 | 235 | 0.0 | 0.0 | 0.00 | 0.00 | 0.00 | 81 | 1011.7 |
| 20260502065504 | 52 | 235 | 0.0 | 0.0 | 0.00 | 0.00 | 0.00 | 81 | 1011.7 |
| 20260502065008 | 52 | 235 | 0.0 | 0.0 | 0.00 | 0.00 | 0.00 | 81 | 1011.7 |
| 20260502064522 | 52 | 235 | 0.0 | 0.0 | 0.00 | 0.00 | 0.00 | 80 | 1011.7 |
| 20260502064011 | 52 | 235 | 0.0 | 0.0 | 0.00 | 0.00 | 0.00 | 80 | 1011.7 |
| 20260502063503 | 52 | 235 | 0.0 | 0.0 | 0.00 | 0.00 | 0.00 | 80 | 1011.7 |
| 20260502063008 | 52 | 235 | 0.0 | 0.0 | 0.00 | 0.00 | 0.00 | 80 | 1011.8 |
| 20260502062507 | 53 | 235 | 0.0 | 0.0 | 0.00 | 0.00 | 0.00 | 80 | 1012.0 |
| 20260502062004 | 53 | 235 | 0.0 | 0.0 | 0.00 | 0.00 | 0.00 | 80 | 1012.1 |
| 20260502061505 | 53 | 235 | 0.0 | 0.0 | 0.00 | 0.00 | 0.00 | 80 | 1012.0 |
| 20260502061004 | 53 | 235 | 0.0 | 0.0 | 0.00 | 0.00 | 0.00 | 80 | 1012.2 |
| 20260502060503 | 53 | 235 | 0.0 | 0.0 | 0.00 | 0.00 | 0.00 | 80 | 1012.3 |
| 20260502060011 | 53 | 235 | 0.0 | 0.0 | 0.00 | 0.00 | 0.00 | 79 | 1012.5 |
| 20260502055504 | 53 | 235 | 0.0 | 0.0 | 0.00 | 0.00 | 0.00 | 79 | 1012.6 |
| 20260502055003 | 54 | 235 | 0.0 | 0.0 | 0.00 | 0.00 | 0.00 | 79 | 1012.5 |
| 20260502054516 | 54 | 235 | 0.0 | 0.0 | 0.00 | 0.00 | 0.00 | 79 | 1012.7 |
| 20260502054004 | 54 | 234 | 0.0 | 0.0 | 0.00 | 0.00 | 0.00 | 79 | 1012.7 |
| 20260502053503 | 54 | 360 | 0.0 | 4.3 | 0.00 | 0.00 | 0.00 | 79 | 1012.7 |
| 20260502053004 | 54 | 236 | 0.9 | 6.1 | 0.00 | 0.00 | 0.00 | 79 | 1012.5 |
| 20260502052504 | 54 | 219 | 1.7 | 7.0 | 0.00 | 0.00 | 0.00 | 79 | 1012.3 |
| 20260502052004 | 54 | 244 | 0.9 | 7.0 | 0.00 | 0.00 | 0.00 | 79 | 1012.3 |
| 20260502051505 | 54 | 230 | 0.0 | 7.8 | 0.00 | 0.00 | 0.00 | 79 | 1012.3 |
| 20260502051003 | 54 | 245 | 2.6 | 7.8 | 0.00 | 0.00 | 0.00 | 79 | 1012.2 |
| 20260502050504 | 54 | 245 | 1.7 | 7.8 | 0.00 | 0.00 | 0.00 | 79 | 1012.2 |
| 20260502050007 | 54 | 219 | 3.5 | 7.8 | 0.00 | 0.00 | 0.00 | 79 | 1012.1 |
| 20260502045502 | 54 | 251 | 2.6 | 7.0 | 0.00 | 0.00 | 0.00 | 79 | 1012.1 |
| 20260502045009 | 54 | 230 | 3.5 | 7.0 | 0.00 | 0.00 | 0.00 | 79 | 1012.1 |
| 20260502044511 | 54 | 226 | 3.5 | 7.8 | 0.00 | 0.00 | 0.00 | 79 | 1012.1 |
| 20260502044006 | 54 | 250 | 0.9 | 7.8 | 0.00 | 0.00 | 0.00 | 79 | 1012.2 |
| 20260502043505 | 54 | 234 | 1.7 | 9.6 | 0.00 | 0.00 | 0.00 | 79 | 1012.2 |
| 20260502043008 | 54 | 229 | 2.6 | 9.6 | 0.00 | 0.00 | 0.00 | 79 | 1012.2 |
| 20260502042504 | 54 | 248 | 1.7 | 7.0 | 0.00 | 0.00 | 0.00 | 79 | 1012.1 |
| 20260502042004 | 55 | 245 | 0.9 | 7.0 | 0.00 | 0.00 | 0.00 | 78 | 1012.1 |
| 20260502041518 | 55 | 247 | 2.6 | 7.0 | 0.00 | 0.00 | 0.00 | 78 | 1012.2 |
| 20260502041004 | 55 | 360 | 1.7 | 6.1 | 0.00 | 0.00 | 0.00 | 78 | 1012.1 |
| 20260502040504 | 55 | 234 | 2.6 | 7.8 | 0.00 | 0.00 | 0.00 | 78 | 1012.2 |
| 20260502040019 | 55 | 360 | 1.7 | 7.8 | 0.00 | 0.00 | 0.00 | 78 | 1012.1 |
| 20260502035503 | 54 | 248 | 1.7 | 7.0 | 0.00 | 0.00 | 0.00 | 78 | 1012.2 |
| 20260502035004 | 54 | 227 | 0.9 | 8.7 | 0.00 | 0.00 | 0.00 | 78 | 1012.2 |
| 20260502034510 | 54 | 234 | 3.5 | 8.7 | 0.00 | 0.00 | 0.00 | 78 | 1012.2 |
| 20260502034007 | 54 | 360 | 0.0 | 7.0 | 0.00 | 0.00 | 0.00 | 78 | 1012.3 |
| 20260502033502 | 54 | 175 | 2.6 | 7.0 | 0.00 | 0.00 | 0.00 | 78 | 1012.2 |
| 20260502033012 | 54 | 240 | 0.0 | 0.0 | 0.00 | 0.00 | 0.00 | 77 | 1012.2 |
| 20260502032506 | 54 | 259 | 0.0 | 0.0 | 0.00 | 0.00 | 0.00 | 77 | 1012.1 |
| 20260502032003 | 54 | 232 | 0.0 | 0.0 | 0.00 | 0.00 | 0.00 | 77 | 1012.1 |
| 20260502031516 | 54 | 222 | 0.0 | 0.0 | 0.00 | 0.00 | 0.00 | 76 | 1012.1 |
| 20260502031004 | 54 | 254 | 0.0 | 0.0 | 0.00 | 0.00 | 0.00 | 76 | 1012.1 |
| 20260502030508 | 54 | 240 | 0.0 | 0.0 | 0.00 | 0.00 | 0.00 | 75 | 1012.0 |
| 20260502030024 | 54 | 223 | 0.0 | 0.0 | 0.00 | 0.00 | 0.00 | 75 | 1011.9 |
| 20260502025507 | 54 | 261 | 0.0 | 0.0 | 0.00 | 0.00 | 0.00 | 74 | 1011.9 |
| 20260502025007 | 54 | 236 | 0.0 | 0.0 | 0.00 | 0.00 | 0.00 | 74 | 1011.8 |
| 20260502024523 | 54 | 254 | 0.0 | 0.0 | 0.00 | 0.00 | 0.00 | 74 | 1011.9 |
| 20260502024005 | 54 | 249 | 0.0 | 0.0 | 0.00 | 0.00 | 0.00 | 73 | 1012.1 |
| 20260502023504 | 54 | 244 | 0.0 | 0.0 | 0.00 | 0.00 | 0.00 | 73 | 1012.1 |
| 20260502023012 | 54 | 244 | 0.0 | 0.0 | 0.00 | 0.00 | 0.00 | 73 | 1012.1 |
| 20260502022504 | 54 | 244 | 0.0 | 0.0 | 0.00 | 0.00 | 0.00 | 73 | 1012.1 |
| 20260502022006 | 54 | 244 | 0.0 | 0.0 | 0.00 | 0.00 | 0.00 | 73 | 1012.2 |
| 20260502021527 | 54 | 242 | 0.0 | 0.0 | 0.00 | 0.00 | 0.00 | 73 | 1012.2 |
| 20260502021008 | 54 | 242 | 0.0 | 0.0 | 0.00 | 0.00 | 0.00 | 73 | 1012.2 |
| 20260502020504 | 54 | 249 | 0.0 | 0.0 | 0.00 | 0.00 | 0.00 | 73 | 1012.2 |
| 20260502020026 | 54 | 249 | 0.0 | 0.0 | 0.00 | 0.00 | 0.00 | 73 | 1012.3 |
| 20260502015506 | 55 | 249 | 0.0 | 7.0 | 0.00 | 0.00 | 0.00 | 73 | 1012.3 |
| 20260502015006 | 55 | 250 | 0.0 | 7.0 | 0.00 | 0.00 | 0.00 | 73 | 1012.4 |
| 20260502014523 | 55 | 240 | 0.9 | 5.2 | 0.00 | 0.00 | 0.00 | 73 | 1012.3 |
| 20260502014008 | 55 | 244 | 0.0 | 4.3 | 0.00 | 0.00 | 0.00 | 72 | 1012.2 |
| 20260502013502 | 55 | 360 | 0.0 | 4.3 | 0.00 | 0.00 | 0.00 | 72 | 1012.2 |
| 20260502013014 | 55 | 250 | 0.0 | 4.3 | 0.00 | 0.00 | 0.00 | 72 | 1012.1 |
| 20260502012507 | 55 | 250 | 0.0 | 4.3 | 0.00 | 0.00 | 0.00 | 72 | 1012.0 |
| 20260502012006 | 55 | 248 | 0.0 | 6.1 | 0.00 | 0.00 | 0.00 | 72 | 1011.8 |
| 20260502011516 | 55 | 246 | 0.9 | 6.1 | 0.00 | 0.00 | 0.00 | 72 | 1011.7 |
| 20260502011004 | 56 | 234 | 0.9 | 6.1 | 0.00 | 0.00 | 0.00 | 71 | 1011.6 |
| 20260502010511 | 56 | 261 | 0.0 | 1.7 | 0.00 | 0.00 | 0.00 | 71 | 1011.6 |
| 20260502010020 | 56 | 249 | 0.0 | 0.0 | 0.00 | 0.00 | 0.00 | 71 | 1011.6 |
| 20260502005506 | 56 | 254 | 0.0 | 0.0 | 0.00 | 0.00 | 0.00 | 70 | 1011.5 |
| 20260502005006 | 56 | 221 | 0.0 | 7.0 | 0.00 | 0.00 | 0.00 | 70 | 1011.4 |
| 20260502004522 | 56 | 251 | 0.0 | 7.0 | 0.00 | 0.00 | 0.00 | 69 | 1011.4 |
| 20260502004009 | 56 | 231 | 0.0 | 7.8 | 0.00 | 0.00 | 0.00 | 68 | 1011.4 |
| 20260502003509 | 56 | 235 | 0.0 | 8.7 | 0.00 | 0.00 | 0.00 | 67 | 1011.4 |
| 20260502003008 | 56 | 252 | 0.0 | 8.7 | 0.00 | 0.00 | 0.00 | 66 | 1011.4 |
| 20260502002503 | 56 | 257 | 0.0 | 7.0 | 0.00 | 0.00 | 0.00 | 66 | 1011.6 |
| 20260502002004 | 57 | 307 | 0.0 | 3.5 | 0.00 | 0.00 | 0.00 | 65 | 1011.7 |
| 20260502001506 | 57 | 234 | 0.0 | 0.0 | 0.00 | 0.00 | 0.00 | 65 | 1011.7 |
| 20260502001002 | 57 | 234 | 0.0 | 0.0 | 0.00 | 0.00 | 0.00 | 65 | 1011.7 |
| 20260502000503 | 57 | 234 | 0.0 | 0.0 | 0.00 | 0.00 | 0.00 | 64 | 1011.6 |
| 20260502000004 | 58 | 229 | 0.0 | 0.0 | 0.00 | 0.00 | 0.00 | 63 | 1011.6 |
| 20260501235504 | 58 | 241 | 0.0 | 3.5 | 0.00 | 0.00 | 0.00 | 62 | 1011.5 |
| 20260501235003 | 58 | 239 | 0.0 | 3.5 | 0.00 | 0.00 | 0.00 | 62 | 1011.5 |
| 20260501234503 | 58 | 221 | 0.0 | 0.0 | 0.00 | 0.00 | 0.00 | 61 | 1011.4 |
| 20260501234004 | 59 | 217 | 0.0 | 0.0 | 0.00 | 0.00 | 0.00 | 60 | 1011.4 |
| 20260501233504 | 59 | 238 | 0.0 | 0.0 | 0.00 | 0.00 | 0.00 | 59 | 1011.4 |
| 20260501233004 | 59 | 235 | 0.0 | 0.0 | 0.00 | 0.00 | 0.00 | 59 | 1011.3 |
| 20260501232502 | 59 | 281 | 0.0 | 3.5 | 0.00 | 0.00 | 0.00 | 59 | 1011.2 |
| 20260501232004 | 60 | 238 | 0.0 | 7.0 | 0.00 | 0.00 | 0.00 | 58 | 1011.1 |
| 20260501231504 | 60 | 265 | 0.0 | 7.0 | 0.00 | 0.00 | 0.00 | 57 | 1011.2 |
| 20260501231003 | 60 | 247 | 0.9 | 6.1 | 0.00 | 0.00 | 0.00 | 57 | 1011.2 |
| 20260501230504 | 60 | 259 | 0.0 | 6.1 | 0.00 | 0.00 | 0.00 | 56 | 1011.1 |
| 20260501230004 | 60 | 51 | 0.0 | 6.1 | 0.00 | 0.00 | 0.00 | 56 | 1011.1 |
| 20260501225504 | 60 | 265 | 0.0 | 6.1 | 0.00 | 0.00 | 0.00 | 57 | 1011.0 |
| 20260501225002 | 60 | 337 | 0.0 | 8.7 | 0.00 | 0.00 | 0.00 | 56 | 1011.1 |
| 20260501224510 | 60 | 242 | 1.7 | 8.7 | 0.00 | 0.00 | 0.00 | 55 | 1011.0 |
| 20260501224008 | 60 | 211 | 1.7 | 8.7 | 0.00 | 0.00 | 0.00 | 56 | 1011.1 |
| 20260501223503 | 60 | 246 | 2.6 | 8.7 | 0.00 | 0.00 | 0.00 | 57 | 1011.1 |
| 20260501223004 | 60 | 256 | 0.0 | 0.0 | 0.00 | 0.00 | 0.00 | 57 | 1011.1 |
| 20260501222503 | 61 | 268 | 0.0 | 0.0 | 0.00 | 0.00 | 0.00 | 58 | 1011.1 |
| 20260501222003 | 61 | 258 | 0.0 | 0.0 | 0.00 | 0.00 | 0.00 | 57 | 1011.1 |
| 20260501221504 | 61 | 255 | 0.0 | 0.0 | 0.00 | 0.00 | 0.00 | 57 | 1011.3 |
| 20260501221005 | 61 | 273 | 0.0 | 0.9 | 0.00 | 0.00 | 0.00 | 57 | 1011.3 |
| 20260501220503 | 61 | 273 | 0.0 | 6.1 | 0.00 | 0.00 | 0.00 | 56 | 1011.4 |
| 20260501220008 | 61 | 65 | 0.9 | 7.8 | 0.00 | 0.00 | 0.00 | 55 | 1011.5 |
| 20260501215503 | 61 | 245 | 2.6 | 7.8 | 0.00 | 0.00 | 0.00 | 53 | 1011.5 |
| 20260501215006 | 61 | 332 | 0.0 | 5.2 | 0.00 | 0.00 | 0.00 | 51 | 1011.4 |
| 20260501214512 | 61 | 175 | 0.0 | 6.1 | 0.00 | 0.00 | 0.00 | 51 | 1011.4 |
| 20260501214003 | 61 | 260 | 0.0 | 6.1 | 0.00 | 0.00 | 0.00 | 49 | 1011.5 |
| 20260501213507 | 61 | 249 | 0.0 | 6.1 | 0.00 | 0.00 | 0.00 | 49 | 1011.5 |
| 20260501213017 | 62 | 43 | 0.9 | 6.1 | 0.00 | 0.00 | 0.00 | 48 | 1011.6 |
| 20260501212507 | 62 | 179 | 0.0 | 5.2 | 0.00 | 0.00 | 0.00 | 48 | 1011.6 |
| 20260501212007 | 62 | 63 | 0.9 | 6.1 | 0.00 | 0.00 | 0.00 | 47 | 1011.6 |
| 20260501211506 | 62 | 36 | 0.0 | 6.1 | 0.00 | 0.00 | 0.00 | 50 | 1011.6 |
| 20260501211004 | 62 | 135 | 0.0 | 5.2 | 0.00 | 0.00 | 0.00 | 49 | 1011.5 |
| 20260501210502 | 62 | 148 | 0.9 | 5.2 | 0.00 | 0.00 | 0.00 | 48 | 1011.5 |
| 20260501210009 | 63 | 271 | 0.0 | 5.2 | 0.00 | 0.00 | 0.00 | 50 | 1011.4 |
| 20260501205506 | 63 | 168 | 0.0 | 6.1 | 0.00 | 0.00 | 0.00 | 48 | 1011.5 |
| 20260501205003 | 63 | 249 | 0.9 | 7.8 | 0.00 | 0.00 | 0.00 | 48 | 1011.7 |
| 20260501204512 | 62 | 171 | 0.0 | 7.8 | 0.00 | 0.00 | 0.00 | 47 | 1011.7 |
| 20260501204002 | 62 | 211 | 2.6 | 8.7 | 0.00 | 0.00 | 0.00 | 48 | 1011.7 |
| 20260501203504 | 62 | 247 | 0.9 | 9.6 | 0.00 | 0.00 | 0.00 | 47 | 1011.9 |
| 20260501203015 | 62 | 255 | 1.7 | 9.6 | 0.00 | 0.00 | 0.00 | 47 | 1011.9 |
| 20260501202504 | 62 | 234 | 2.6 | 7.8 | 0.00 | 0.00 | 0.00 | 47 | 1012.0 |
| 20260501202009 | 62 | 75 | 2.6 | 7.0 | 0.00 | 0.00 | 0.00 | 47 | 1012.1 |
| 20260501201505 | 62 | 200 | 0.0 | 4.3 | 0.00 | 0.00 | 0.00 | 48 | 1012.1 |
| 20260501201003 | 62 | 242 | 0.0 | 6.1 | 0.00 | 0.00 | 0.00 | 48 | 1012.1 |
| 20260501200508 | 63 | 151 | 0.0 | 7.8 | 0.00 | 0.00 | 0.00 | 46 | 1012.3 |
| 20260501200014 | 63 | 217 | 1.7 | 7.8 | 0.00 | 0.00 | 0.00 | 47 | 1012.4 |
| 20260501195502 | 63 | 11 | 0.9 | 7.0 | 0.00 | 0.00 | 0.00 | 46 | 1012.4 |
| 20260501195002 | 63 | 176 | 0.0 | 5.2 | 0.00 | 0.00 | 0.00 | 45 | 1012.5 |
| 20260501194508 | 63 | 251 | 0.9 | 6.1 | 0.00 | 0.00 | 0.00 | 44 | 1012.7 |
| 20260501194004 | 63 | 65 | 1.7 | 6.1 | 0.00 | 0.00 | 0.00 | 43 | 1012.7 |
| 20260501193503 | 63 | 229 | 0.9 | 6.1 | 0.00 | 0.00 | 0.00 | 44 | 1012.8 |
| 20260501193031 | 63 | 136 | 0.9 | 6.1 | 0.00 | 0.00 | 0.00 | 43 | 1012.8 |
| 20260501192509 | 63 | 55 | 0.0 | 8.7 | 0.00 | 0.00 | 0.00 | 43 | 1012.9 |
| 20260501192008 | 63 | 259 | 0.0 | 9.6 | 0.00 | 0.00 | 0.00 | 42 | 1013.1 |
| 20260501191507 | 63 | 225 | 1.7 | 9.6 | 0.00 | 0.00 | 0.00 | 42 | 1013.2 |
| 20260501191004 | 64 | 254 | 0.0 | 0.0 | 0.00 | 0.00 | 0.00 | 43 | 1013.2 |
| 20260501190508 | 64 | 217 | 0.0 | 7.0 | 0.00 | 0.00 | 0.00 | 41 | 1013.2 |
| 20260501190019 | 64 | 236 | 0.0 | 7.0 | 0.00 | 0.00 | 0.00 | 46 | 1013.3 |
| 20260501185504 | 64 | 348 | 0.0 | 3.5 | 0.00 | 0.00 | 0.00 | 43 | 1013.4 |
| 20260501185006 | 64 | 213 | 0.0 | 0.9 | 0.00 | 0.00 | 0.00 | 44 | 1013.5 |
| 20260501184517 | 64 | 190 | 0.0 | 7.0 | 0.00 | 0.00 | 0.00 | 43 | 1013.6 |
| 20260501184003 | 64 | 248 | 2.6 | 7.0 | 0.00 | 0.00 | 0.00 | 44 | 1013.8 |
| 20260501183503 | 64 | 136 | 0.0 | 6.1 | 0.00 | 0.00 | 0.00 | 44 | 1013.8 |
| 20260501183014 | 64 | 193 | 0.0 | 9.6 | 0.00 | 0.00 | 0.00 | 45 | 1013.9 |
| 20260501182503 | 64 | 196 | 2.6 | 9.6 | 0.00 | 0.00 | 0.00 | 46 | 1014.0 |
| 20260501182008 | 64 | 307 | 0.0 | 10.4 | 0.00 | 0.00 | 0.00 | 45 | 1014.0 |
| 20260501181507 | 64 | 209 | 2.6 | 10.4 | 0.00 | 0.00 | 0.00 | 46 | 1014.0 |
| 20260501181003 | 64 | 248 | 0.0 | 7.8 | 0.00 | 0.00 | 0.00 | 45 | 1014.1 |
| 20260501180504 | 65 | 230 | 0.9 | 10.4 | 0.00 | 0.00 | 0.00 | 47 | 1014.1 |
| 20260501180014 | 65 | 182 | 2.6 | 10.4 | 0.00 | 0.00 | 0.00 | 45 | 1014.1 |
| 20260501175505 | 64 | 244 | 3.5 | 9.6 | 0.00 | 0.00 | 0.00 | 47 | 1014.0 |
| 20260501175008 | 64 | 246 | 0.0 | 7.8 | 0.00 | 0.00 | 0.00 | 45 | 1014.0 |
| 20260501174519 | 64 | 243 | 0.0 | 8.7 | 0.00 | 0.00 | 0.00 | 45 | 1014.0 |
| 20260501174005 | 65 | 215 | 2.6 | 8.7 | 0.00 | 0.00 | 0.00 | 43 | 1014.0 |
| 20260501173509 | 65 | 247 | 0.0 | 0.9 | 0.00 | 0.00 | 0.00 | 48 | 1014.0 |
| 20260501173023 | 65 | 240 | 0.0 | 0.9 | 0.00 | 0.00 | 0.00 | 46 | 1014.1 |
| 20260501172506 | 64 | 210 | 0.0 | 0.0 | 0.00 | 0.00 | 0.00 | 43 | 1014.1 |